Friday Harbor, WA
on Wednesday, November 21, 2012

Wednesday
Previous Day Next Day
Daily Summary
 ActualAverageRecord
Temperature
Mean Temperature °F °F  
Max Temperature 46°F 46°F 51°F (2000)
Min Temperature 37°F 38°F 25°F (2003)
Degree Days
Heating Degree Days 24    
Moisture
Dew Point 40°F   
Average Humidity 89    
Maximum Humidity 97    
Minimum Humidity 74    
Precipitation
Precipitation 0.05 in in in ()
Wind
Wind Speed 4 mph   
Max Wind Speed 13 mph   
Max Gust Speed 22 mph   
Visibility 9 miles   
Events Rain   
Averages and records for this station are not official NWS values.
Key: T is trace of precipitation, MM is missing value
Source: NWS Daily Summary
Seasonal Weather Averages
Time(PST)TemperatureDew PointHumidity Pressure Visibility Wind DirectionWind SpeedGust SpeedPrecipitationEvents Conditions
12:04 AM 44.6°F 42.8°F 93% 29.59 in 10.0 miles NE 4.6 mph - N/A   Overcast
12:16 AM 44.6°F 42.8°F 93% 29.57 in 10.0 miles NNE 3.5 mph - N/A   Overcast
12:28 AM 44.6°F 42.8°F 93% 29.56 in 10.0 miles NNE 3.5 mph - 0.00 in Rain Light Rain
12:53 AM 45.0°F 42.1°F 90% 29.55 in 10.0 miles NE 3.5 mph - 0.00 in   Overcast
1:01 AM 44.6°F 42.8°F 93% 29.55 in 10.0 miles Calm Calm - N/A   Overcast
1:14 AM 44.6°F 42.8°F 93% 29.54 in 10.0 miles Calm Calm - N/A   Overcast
1:23 AM 44.6°F 42.8°F 93% 29.53 in 8.0 miles Calm Calm - 0.00 in Rain Light Rain
1:34 AM 44.6°F 42.8°F 93% 29.53 in 8.0 miles Calm Calm - 0.00 in Rain Light Rain
1:53 AM 45.0°F 43.0°F 93% 29.52 in 10.0 miles Calm Calm - 0.00 in Rain Light Rain
2:53 AM 46.0°F 42.1°F 86% 29.51 in 10.0 miles SE 10.4 mph - 0.00 in Rain Light Rain
3:53 AM 45.0°F 42.1°F 90% 29.50 in 10.0 miles SE 10.4 mph - 0.00 in   Overcast
4:01 AM 44.6°F 41.0°F 87% 29.50 in 10.0 miles SE 12.7 mph - N/A   Overcast
4:53 AM 45.0°F 44.1°F 97% 29.52 in 10.0 miles South 11.5 mph 20.7 mph N/A   Overcast
5:23 AM 44.6°F 41.0°F 87% 29.53 in 10.0 miles SSW 9.2 mph - 0.00 in Rain Light Rain
5:53 AM 41.0°F 39.0°F 93% 29.57 in 10.0 miles Variable 3.5 mph - 0.00 in Rain Light Rain
6:17 AM 41.0°F 39.2°F 93% 29.60 in 10.0 miles Variable 3.5 mph - 0.00 in   Overcast
6:44 AM 39.2°F 37.4°F 93% 29.62 in 10.0 miles SW 6.9 mph - 0.00 in   Overcast
6:53 AM 41.0°F 37.0°F 86% 29.63 in 10.0 miles SW 8.1 mph 21.9 mph 0.00 in   Overcast
7:53 AM 41.0°F 37.0°F 86% 29.68 in 10.0 miles West 4.6 mph - 0.00 in   Overcast
8:53 AM 43.0°F 37.0°F 80% 29.72 in 10.0 miles Variable 4.6 mph - N/A   Clear
9:53 AM 45.0°F 37.0°F 74% 29.76 in 10.0 miles West 4.6 mph - N/A   Partly Cloudy
10:53 AM 46.0°F 39.0°F 76% 29.81 in 10.0 miles SW 3.5 mph - N/A   Overcast
11:53 AM 44.1°F 39.0°F 82% 29.83 in 6.0 miles West 4.6 mph - 0.00 in Rain Light Rain
12:11 PM 42.8°F 39.2°F 87% 29.83 in 5.0 miles West 3.5 mph - 0.00 in Rain Light Rain
12:41 PM 42.8°F 39.2°F 87% 29.84 in 2.5 miles NNW 3.5 mph - 0.03 in Rain Rain
12:50 PM 42.8°F 39.2°F 87% 29.84 in 6.0 miles NNW 4.6 mph - 0.03 in Rain Light Rain
12:53 PM 42.1°F 39.9°F 92% 29.84 in 9.0 miles WNW 3.5 mph - 0.03 in Rain Light Rain
1:00 PM 42.8°F 39.2°F 87% 29.85 in 10.0 miles West 4.6 mph - 0.00 in   Overcast
1:30 PM 42.8°F 39.2°F 87% 29.88 in 5.0 miles WSW 4.6 mph - 0.00 in Rain Light Rain
1:53 PM 42.1°F 39.9°F 92% 29.90 in 4.0 miles WSW 4.6 mph - 0.01 in Rain Light Rain
2:00 PM 42.8°F 39.2°F 87% 29.90 in 4.0 miles SW 5.8 mph - 0.01 in Rain Light Rain
2:11 PM 42.8°F 41.0°F 93% 29.90 in 9.0 miles Variable 3.5 mph - 0.01 in Rain Light Rain
2:53 PM 43.0°F 41.0°F 93% 29.94 in 10.0 miles Calm Calm - 0.01 in Rain Light Rain
3:09 PM 42.8°F 39.2°F 87% 29.94 in 10.0 miles Calm Calm - 0.00 in   Overcast
3:41 PM 42.8°F 39.2°F 87% 29.97 in 10.0 miles WSW 4.6 mph - 0.00 in   Mostly Cloudy
3:51 PM 42.8°F 39.2°F 87% 29.98 in 10.0 miles SW 3.5 mph - 0.00 in   Mostly Cloudy
3:53 PM 42.1°F 39.0°F 89% 29.98 in 10.0 miles Calm Calm - 0.00 in   Mostly Cloudy
4:06 PM 41.0°F 37.4°F 87% 29.99 in 10.0 miles SW 4.6 mph - N/A   Scattered Clouds
4:53 PM 41.0°F 37.9°F 89% 30.02 in 10.0 miles SW 6.9 mph - N/A   Partly Cloudy
5:53 PM 41.0°F 37.0°F 86% 30.07 in 10.0 miles Variable 3.5 mph - N/A   Clear
6:53 PM 39.0°F 37.0°F 93% 30.11 in 10.0 miles SW 6.9 mph - N/A   Clear
7:53 PM 41.0°F 37.0°F 86% 30.15 in 10.0 miles WSW 4.6 mph - N/A   Clear
8:53 PM 41.0°F 37.9°F 89% 30.18 in 10.0 miles WSW 3.5 mph - N/A   Clear
9:53 PM 39.9°F 36.0°F 86% 30.22 in 10.0 miles SW 4.6 mph - N/A   Clear
10:53 PM 37.9°F 36.0°F 93% 30.26 in 10.0 miles Calm Calm - N/A   Clear
11:53 PM 37.9°F 36.0°F 93% 30.28 in 10.0 miles Calm Calm - N/A   Mostly Cloudy
Moon Phase
Nov. 21 Nov. 28 Dec. 06 Dec. 13 Dec. 20
Sunrise:07:30 AM (PST) Moon Rise:01:11 PM (PST)
Sunset:04:25 PM (PST) Moon Set:12:25 AM (PST)

Copyright © 2014 The Weather Underground, Inc.